Location: Aufkirchen
(47.9603°N, 11.3653°E)
Time: 07:05:29
(UTC+01:00)

Transit 4A - Pass Details

Date: 05 December 2020
Orbit: 864 x 980 km, 66.8° (Epoch: 25 January)

Event Time Altitude Azimuth Distance (km) Brightness Sun altitude
Rises 09:49:25 0° 279° (W) 3,673 10.6 13.3°
Reaches altitude 10° 09:52:57 10° 299° (WNW) 2,735 9.9 13.6°
Maximum altitude 09:57:08 18° 340° (NNW) 2,226 9.4 14.0°
Drops below altitude 10° 10:01:20 10° 21° (NNE) 2,737 10.0 14.3°
Sets 10:04:53 0° 40° (NE) 3,676 10.8 14.6°
